This is the latest recevied weather packets stored in our database for station/object N7WSS. If no packets are shown the sender has not sent any weather packets the latest 10 day(s).
| Time | Temp. | Humidity | Pressure | Rain* | Wind** | Luminosity | Snow |
|---|---|---|---|---|---|---|---|
| 1777969356 | 13.89° C | 92% | 1013.2 hPa | 3.05 mm | - | - | - |
| 1777969052 | 13.89° C | 92% | 1013.3 hPa | 1.78 mm | - | - | - |
| 1777968749 | 13.89° C | 92% | 1013.3 hPa | 1.27 mm | - | - | - |
| 1777968446 | 13.89° C | 91% | 1013.5 hPa | 3.05 mm | - | - | - |
| 1777968141 | 13.89° C | 91% | 1013.5 hPa | 1.27 mm | - | - | - |
| 1777967837 | 13.89° C | 91% | 1013.8 hPa | 1.27 mm | - | - | - |
| 1777967535 | 13.89° C | 91% | 1013.7 hPa | 1.78 mm | - | - | - |
| 1777967232 | 13.89° C | 91% | 1013.8 hPa | 1.27 mm | - | - | - |
| 1777966929 | 13.89° C | 91% | 1013.8 hPa | 3.05 mm | - | - | - |
| 1777966627 | 13.89° C | 90% | 1013.9 hPa | 3.05 mm | - | - | - |
| 1777966324 | 13.89° C | 91% | 1013.7 hPa | 3.05 mm | - | - | - |
| 1777966020 | 13.89° C | 91% | 1013.7 hPa | 1.78 mm | - | - | - |
| 1777965716 | 13.89° C | 90% | 1013.7 hPa | 0 mm | - | - | - |
| 1777965412 | 13.89° C | 90% | 1013.7 hPa | 1.78 mm | - | - | - |
| 1777965110 | 13.89° C | 89% | 1013.7 hPa | 0 mm | - | - | - |
| 1777964807 | 13.89° C | 89% | 1013.5 hPa | 1.27 mm | - | - | - |
| 1777964503 | 14.44° C | 89% | 1013.3 hPa | 1.27 mm | - | - | - |
| 1777964199 | 14.44° C | 88% | 1013.5 hPa | 0 mm | - | - | - |
| 1777963896 | 14.44° C | 87% | 1013.5 hPa | 1.78 mm | - | - | - |
| 1777963593 | 14.44° C | 86% | 1013.2 hPa | 1.78 mm | - | - | - |
| 1777963291 | 14.44° C | 85% | 1012.9 hPa | 0 mm | - | - | - |
| 1777962988 | 14.44° C | 84% | 1013.1 hPa | 0 mm | - | - | - |
| 1777962684 | 14.44° C | 83% | 1013 hPa | 0 mm | - | - | - |
| 1777962381 | 14.44° C | 85% | 1013.1 hPa | 1.27 mm | - | - | - |
| 1777962078 | 14.44° C | 83% | 1013.2 hPa | 1.27 mm | - | - | - |
* Rain latest hour (hover to see other rain measurements)
** Current wind speed in m/s (hover to see current wind gust speed)